Location: Hawks Ness
(60.2333°N, 1.1667°W)
Time: 18:08:48
(UTC+00:00)

Cosmos 1908 - Pass Details

Date: 22 October 2019
Orbit: 511 x 532 km, 82.5° (Epoch: 11 November)

Event Time Altitude Azimuth Distance (km) Brightness Sun altitude
Rises 04:20:18 0° 347° (NNW) 2,661 6.8 -20.4°
Reaches altitude 10° 04:22:29 10° 351° (N) 1,765 5.9 -20.2°
Maximum altitude 04:26:19 57° 71° (ENE) 614 3.8 -19.7°
Drops below altitude 10° 04:30:05 10° 152° (SSE) 1,742 6.1 -19.3°
Sets 04:32:13 0° 156° (SSE) 2,622 6.9 -19.0°
